Location: Observatoire
(46.1952°N, 5.3391°E)
Time: 12:52:11
(UTC+01:00)

Explorer 7 - Pass Details

Date: 27 February 2026
Orbit: 430 x 540 km, 50.2° (Epoch: 17 March)

Event Time Altitude Azimuth Distance (km) Brightness Sun altitude
Rises 15:16:44 0° 285° (WNW) 2,417 10.4 26.7°
Reaches altitude 10° 15:18:54 10° 293° (WNW) 1,560 9.5 26.4°
Maximum altitude 15:22:16 43° 6° (N) 645 7.1 26.0°
Drops below altitude 10° 15:25:44 10° 80° (E) 1,609 8.8 25.6°
Sets 15:28:00 0° 87° (E) 2,505 9.8 25.4°
